2010 TR19

Japanese version
Home page
Updated on December 7, 2011

---------------------------------------------------------------------

* Profile

* Orbital Elements

The following orbital elements are taken from MPO202492

Epoch 2010 Oct. 11.0 TT = JDT 2455480.5                 MPC
M 304.70756              (2000.0)            P               Q
n   0.00443775     Peri.   35.73641     -0.59310369     -0.68215957
a  36.6741919      Node    94.76157     +0.60228558     -0.72840960
e   0.6860524      Incl.   25.41256     +0.53430337     +0.06385743
P 222              H    5.4           G   0.15
From 10 observations 2010 Oct. 6-Nov. 2.  E-assumed.

* Magnitudes Graph

        H = 5.4  G = 0.15

---------------------------------------------------------------------

The orbital elements are published at the MPC Ephemerides and Orbital Elements.
The magnitudes graphs are made with Comet for Windows.

---------------------------------------------------------------------

Copyright(C) Seiichi Yoshida (comet@aerith.net). All rights reserved.